Погода Ливны

Погода Ливны : погода сейчас, прогноз погоды и архив. Всё, что Вы хотите узнать о погоде Ливны!

Хотите узнать прогноз погоды Ливны? Тогда Вам сюда: Погода Ливны

Поиск расширенной информации на нашем сайте:

Другие новости

Новости СМИ2

Главная страница сайта

Новости сайта

02.10.2013

Напоминаем, что на нашем новом сайте вы можете получить высокодетализированные прогнозы погоды по пунктам России, СНГ и мира (включающие важные для авиации метеовеличины, такие как направление и скорость ветра, видимость, явления погоды, количество и форма облачности, нижняя и верхняя граница облачности), а также ознакомиться с разнообразными материалами по авиационной метеорологии и подборкой полезных ссылок на эту тему.

Сайт Метеоцентр.Азия посвящён разработке технологий оптимизации авиаметеорологического обслуживания, включая проектирование и перспективное создание нескольких автоматизированных авиаметеорологических систем:
- система выпуска высокодетальных прогностических карт явлений погоды для нижнего воздушного пространства по России и ближнему зарубежью;
- система верификации прогнозов TAF (выпускаемых синоптиками официальных АМСГ РФ и ближнего зарубежья) и AUTOTAF (выпускаемых сайтом Метеоцентр.Азия) - выявление ошибок, онлайн-сопоставление с фактической погодой METAR, автоматическое внесение коррективов в прогнозы при резком отклонении фактической погоды от прогноза, подсчёт оправдываемости прогнозов по элементам и в целом;
- система обработки, анализа и отображения авиаметеорологической информации для применения провайдерами метеорологической информации.

Рекомендуем: биолан

Погода Ливны - сегодня

Время (UTC), дата Ветер
(°,м/с) 
Видим.   Явления Облачность Т
(°С)
Тd
(°С)
f(%) Тe
(°С)
Pmin
(гПа)
dP
(гПа)
Po
(мм)
O2
(г/м3)
Тmin Tmax R s Состояние
почвы
09 26.04.17 210 (ЮЗ) 7-14{14}  20000 м    6/0 верхняя 
[Ci fib]
+15.3 -1.8 31 +15  1019.7  -0.3  749  286           
12 26.04.17 200 (Ю) 8-17{18}  20000 м    4/0 верхняя 
[Ci fib]
+17.6 -1 28 +17  1018.6  -0.8  748  283           
15 26.04.17 220 (ЮЗ) 7-14{17}  20000 м    9/0 верхняя 
[Cs]
+17.2 -1 29 +17  1018  -0.6  748  283           
18 26.04.17 210 (ЮЗ) 6{14}  20000 м    4/3 600 м верхняя 
[Sc|Ci fib]
+13.9 -3.3 30 +13  1019  0.7  748  287    +17.6       
21 26.04.17 210 (ЮЗ) 7-12{13}  20000 м    5/3 600 м верхняя 
[Sc|Ci fib]
+12.3 -2.2 36 +11  1019.2  0.1  748  289           
00 27.04.17 200 (Ю) 4{12}  20000 м    3/0 верхняя 
[Ci fib]
+10.1 -0.7 47 +9  1019.8  0.4  749  291           
03 27.04.17 200 (Ю) 5{10}  20000 м    8/0 верхняя 
[Cc]
+8 -1.1 53 +6  1020  0.1  749  293  +8         
06 27.04.17 210 (ЮЗ) 7-12{12}  20000 м    9/0 средняя, верхняя 
[Ac trans|Cc]
+12.9 -1.9 36 +12  1020.5  0.8  749  288  +8         
09 27.04.17 210 (ЮЗ) 7-13{14}  20000 м    8/0 верхняя 
[Cc]
+17.9 -2.8 24 +18  1019.6  -0.5  749  283           
12 27.04.17 210 (ЮЗ) 7-13{14}  20000 м    8/0 верхняя 
[Cc]
+20.8 -3.9 19 +21  1018.4  -1  748  280           
15 27.04.17 220 (ЮЗ) 7-13{15}  20000 м    4/0 верхняя 
[Cc]
+20.7 -2.7 21 +21  1017.5  -0.8  747  280           
18 27.04.17 190 (Ю) 3{13}  20000 м    6/0 верхняя 
[Cs]
+16.4 -2.5 27 +17  1018.4  0.5  748  285    +21.8       
21 27.04.17 200 (Ю) 20000 м    ясно 
+12.5 -2.3 36 +12  1019.5  0.8  748  289           
00 28.04.17 190 (Ю) 20000 м    ясно 
+10.2 -1.3 45 +10  1019.7  748  291           
03 28.04.17 190 (Ю) 20000 м    9/0 верхняя 
[Ci fib]
+9.2 -0.7 50 +9  1020.5  0.7  749  292  +8.5         
06 28.04.17 200 (Ю) 20000 м    8/0 верхняя 
[Ci fib]
+17 -4.8 22 +17  1020.3  0.4  749  285  +8.5         
09 28.04.17 210 (ЮЗ) 5-10{11}  20000 м    4/0 верхняя 
[Ci fib]
+21.8 -7 14 +22  1019.4  -0.5  749  280           
12 28.04.17 210 (ЮЗ) 5{12}  20000 м    8/6 600 м верхняя 
[Sc|Ci fib]
+23.7 -6.5 13 +24  1018.4  -0.8  748  278           
15 28.04.17 190 (Ю) 4{10}  20000 м    9/0 верхняя 
[Ci fib]
+22.7 -3.9 17 +23  1018.1  -0.5  748  279           
18 28.04.17 170 (Ю) 20000 м    5/3 600 м верхняя 
[Sc|Ci fib]
+17.4 +0.2 31 +18  1018.7  0.3  748  283    +23.7       
21 28.04.17 150 (ЮВ) 20000 м    ясно 
+12 +0.5 45 +12  1019  -0.1  748  289           
00 29.04.17 150 (ЮВ) 20000 м    ясно 
+11.6 +4 60 +12  1019.1  0.1  748  289           
03 29.04.17 150 (ЮВ) 20000 м    3/0 верхняя 
[Ci fib]
+10.7 +4.5 65 +10  1019.4  0.1  748  289  +10.7         
06 29.04.17 170 (Ю) 20000 м    3/0 верхняя 
[Ci fib]
+16.4 +5.1 47 +17  1018.9  748  284  +10.7         
09 29.04.17 150 (ЮВ) 20000 м    1/0 верхняя 
[Ci fib]
+21.4 +3.2 30 +21  1017.9  -0.6  748  279           
Время (UTC), дата Ветер
(°,м/с) 
Видим.   Явления Облачность Т
(°С)
Тd
(°С)
f(%) Тe
(°С)
Pmin
(гПа)
dP
(гПа)
Po
(мм)
O2
(г/м3)
Тmin Tmax R s Состояние
почвы

Для получения пояснительной информации подведите курсор к названию столбца.

ПОГОДА Ливны - архив

Всё, что Вы хотите узнать о погоде Ливны - удобно и подробно!

Выберите нужную дату (начиная с 1 января 2015* года) и нажмите кнопку "Найти".
Будут отображены архивные сводки погоды по пункту Ливны, начиная с указанной даты.


Отображать данные в формате CSV (для использования в таблицах Excel)


Внимание! Наш архив погоды предназначен исключительно для личного некоммерческого использования в познавательных целях. Если Вам необходимы официальные справки о состоянии погоды (для производственных, юридических, коммерческих и т.п. целей), обращайтесь в органы Росгидромета.

*Примечание: данная дата относится к архиву по метеостанциям СССР (Россия, СНГ, Балтия).
Архив по метеостанциям Зарубежной Европы и Азии (кроме Китая) хранится 10 дней, по другим регионам земного шара (Китай, Африка, Америка, Австралия, Океания) - 1 день.

Ливны - район местоположения метеостанции


Название, широта, долгота, высота метеостанции:
Ливны 52.4°ш. 37.6°д. 179 м над ур. моря [Российская Федерация]

Дополнительная информация

В oтличие oт бoльшинства пoгoдных сайтoв мы публикуем пoдрoбную метеoинфoрмацию в детальнoм прoфессиoнальнoм фoрмате.

Характеристики температуры и влажнoсти вoздуха измеряются на высoте 2 м в тени вдали oт зданий и деревьев.
Скoрoсть ветра измеряется на высoте 10 м (на урoвне рoста челoвека скoрoсть ветра ниже в 1.5-2 раза). Если метеoстанция нахoдится в гoрoде или в лесу, тo скoрoсть ветра занижена на 2-4 м/с пo сравнению с oткрытым местoм. Скoрoсть ветра над акватoриями крупных рек и oзёр, а также на вершинах хoлмoв на 2-5 м/с выше, чем в oбычных услoвиях.
Атмoсфернoе давление в разных тoчках местнoсти мoжет значительнo oтличаться oт давления на метеoстанции, в зависимoсти oт услoвий рельефа (при пoдъёме на 10 м давление пoнижается примернo на 1 мм рт.ст.).